www.pogodaiklimat.ru

Погода и климат >> Архив погоды >> Россия >> Ставропольский край >> Александровское


ПОГОДА в Александровском

  • Прогноз погоды в Александровском
  • Монитор погоды в Александровском

АРХИВ ПОГОДЫ в Александровском

Время (UTC), дата Ветер
(напр.,м/с)
 
Видим.   Явления Облачность Т
(С)
Тd
(С)
f
(%)
Тe
(С)
Тes
(С)
Комфортность P
(гПа)
Po
(гПа)
Тmin
(С)
Tmax
(С)
R
(мм)
R24
(мм)
S
(см)
21 9.09 В 2 20 км ясно +14.3 +6.9 61 +14 +14 1022.3 985.1
00 10.09 В 1 20 км ясно +12.1 +7.1 71 +12 +12 1022.4 985.0
03 10.09 В 1 20 км 3/0
[Ci fib]
+10.7 +7.8 82 +10 +10 1022.5 985.0 +9.9
06 10.09 В 5-10
{10}
20 км ясно +18.7 +10.3 58 +19 +22 1021.7 985.2
09 10.09 В 5-11
{13}
20 км 4/0
[Ac trans]
+23.1 +6.4 34 +24 +29 комфорт 1020.8 984.8
12 10.09 В 6-13
{13}
20 км 3/0
[Ac trans]
+24.8 +3.9 26 +24 +26 комфорт 1019.5 983.8
15 10.09 В 5
{14}
20 км 3/0
[Ac trans]
+22.6 +4.1 30 +23 +23 комфорт 1020.0 984.0 +25.4
18 10.09 В 4 20 км ясно +18.9 +4.3 38 +19 +19 1021.6 985.1
21 10.09 В 3 20 км 3/0
[Ac trans]
+17.0 +10.6 66 +17 +17 1022.5 985.7
00 11.09 В 2 20 км 6/0
[Ac trans]
+15.3 +11.8 80 +15 +15 1023.1 986.0
03 11.09 В 2 20 км 8/0
[Ac trans]
+14.6 +12.3 86 +14 +14 1023.5 986.4 +14.2
06 11.09 В 4 20 км 3/0
[Ac trans]
+19.8 +11.3 58 +21 +25 комфорт 1023.9 987.5
09 11.09 В 5-13
{13}
20 км 8/3 600 м
[Cb cap Ac trans]
+22.9 +8.8 41 +24 +27 комфорт 1023.8 987.7
12 11.09 ЮВ 3
{13}
20 км 4/0
[Ac trans]
+24.7 +10.1 40 +26 +30 жарко 1023.0 987.1
15 11.09 В 3
{10}
20 км 4/0
[Ac trans]
+23.7 +2.4 25 +23 +23 комфорт 1024.4 988.3 +25.1
18 11.09 штиль 0 20 км ясно +15.4 +5.4 51 +15 +15 1025.3 988.3
21 11.09 штиль 0 20 км ясно +12.2 +6.2 67 +12 +12 1025.1 987.7
00 12.09 штиль 0 20 км ясно +8.4 +6.2 86 +8 +8 1025.5 987.7
03 12.09 штиль 0 20 км ясно +6.7 +6.1 96 +6 +6 1027.1 988.9 +6.4
06 12.09 ЮВ 3 20 км ясно +19.9 +6.9 43 +21 +26 комфорт 1025.4 988.9
09 12.09 В 5
{10}
20 км 3/0
[Ac trans Ci fib]
+22.9 +5.6 33 +23 +29 комфорт 1024.0 987.9
12 12.09 В 4-10
{10}
20 км 4/0
[Ac trans]
+24.4 +3.3 25 +24 +27 комфорт 1023.5 987.5
15 12.09 В 3
{10}
20 км 3/0
[Ci fib]
+22.7 +2.4 26 +22 +22 комфорт 1022.7 986.5 +24.8
18 12.09 ЮВ 3 20 км ясно +18.8 +6.6 45 +19 +19 1023.7 987.1
21 12.09 СВ 1 20 км ясно +13.6 +7.1 65 +14 +14 1024.0 986.8
00 13.09 З 1 20 км ясно +8.7 +6.5 86 +8 +8 1024.1 986.3
03 13.09 штиль 0 20 км ясно +7.4 +5.8 90 +6 +6 1024.9 986.8 +7.4
06 13.09 В 4 20 км ясно +18.6 +8.8 53 +19 +23 1024.2 987.6
09 13.09 В 3 20 км ясно +22.9 +5.6 33 +23 +33 комфорт 1022.4 986.4
12 13.09 В 3 20 км 3/0
[Ac trans]
+24.7 +3.9 26 +24 +29 комфорт 1020.9 985.1
15 13.09 ЮВ 3 20 км ясно +22.3 +3.4 29 +22 +22 комфорт 1020.9 984.8 +25.1
18 13.09 В 2 20 км ясно +18.0 +6.6 47 +19 +19 1022.0 985.3
21 13.09 штиль 0 20 км ясно +13.3 +7.3 67 +13 +13 1021.7 984.6
00 14.09 штиль 0 20 км ясно +10.7 +7.2 79 +10 +10 1022.8 985.2
03 14.09 штиль 0 20 км ясно +7.7 +6.7 93 +7 +7 1023.4 985.4 +7.6
06 14.09 ЮВ 3 20 км ясно +18.5 +11.1 62 +19 +24 1021.9 985.4
09 14.09 ЮВ 4
{10}
20 км 3/0
[Ac trans]
+23.5 +7.0 35 +24 +30 комфорт 1020.2 984.4
12 14.09 В 3 20 км ясно +25.1 +4.6 27 +25 +30 комфорт 1018.7 983.0
15 14.09 ЮВ 2 20 км ясно +22.8 +4.6 31 +23 +23 комфорт 1019.3 983.5 +25.5
18 14.09 З 1 20 км ясно +13.2 +7.2 67 +13 +13 1020.6 983.5
21 14.09 штиль 0 20 км ясно +11.2 +7.0 75 +11 +11 1019.2 981.9
00 15.09 штиль 0 20 км ясно +9.6 +7.2 85 +9 +9 1019.2 981.6
03 15.09 штиль 0 20 км 3/0
[Ac trans]
+9.4 +7.6 89 +9 +9 1020.4 982.1 +9.2
06 15.09 З 3 20 км ясно +22.5 +7.0 37 +23 +28 комфорт 1017.7 981.8
09 15.09 З 4 20 км 3/0
[Ci fib]
+27.2 +3.8 22 +26 +33 жарко 1017.1 981.7
12 15.09 СЗ 4
{10}
20 км 3/0
[Ci fib]
+26.5 +3.0 22 +25 +29 комфорт 1017.0 981.5
15 15.09 СЗ 2
{10}
20 км 3/0
[Ci fib]
+23.5 +2.6 25 +23 +23 комфорт 1017.7 981.8 +28.3
18 15.09 З 2 20 км ясно +14.4 +5.3 54 +14 +14 1020.7 983.6
21 15.09 В 1 20 км ясно +14.7 +6.7 59 +15 +15 1021.0 984.0
00 16.09 ЮЗ 1 20 км ясно +10.1 +6.8 80 +10 +10 1021.7 984.1
03 16.09 штиль 0 20 км ясно +8.3 +6.3 87 +7 +7 1021.6 983.7 +8.3
06 16.09 В 2 20 км ясно +19.8 +6.2 41 +21 +27 комфорт 1018.9 982.6
09 16.09 ЮВ 2 20 км ясно +24.8 +5.9 30 +25 +36 комфорт 1016.3 980.6
12 16.09 ЮВ 3 20 км ясно +26.8 +3.9 23 +26 +31 жарко 1013.4 978.1
15 16.09 ЮВ 1 20 км ясно +23.8 +4.7 29 +24 +24 комфорт 1012.5 976.9 +26.9
18 16.09 З 1 20 км ясно +14.7 +7.0 60 +15 +15 1013.9 977.1

 

Местоположение метеостанции Александровское (Ставропольский край, Россия): широта 44.72 долгота 43.00 высота над уровнем моря 313 м.

В архиве по умолчанию представлена погода в Александровском за последнюю неделю. Архивные данные за месяц целиком и за предыдущие месяцы, начиная с января 2011 года, Вы можете получить, выбрав интересующий диапазон дат из раскрывающегося списка и нажав кнопку "Ввод!".


*Определитесь, кто Вы:
робот инопланетянин человек

Внимание! Время в таблицах - всемирное. Для получения местного времени необходимо прибавить поправку, которая равна 3 ч.

Смотрите также архив погоды в соседних городах и на ближайших метеорологических станциях:

Погода в Благодарном (Ставропольский край, Россия) (55 км)
Погода в Минеральных Водах (Ставропольский край, Россия) (56 км)
Погода в Светлограде (Ставропольский край, Россия) (71 км)
Погода в Георгиевске (Ставропольский край, Россия) (75 км)
Погода в Зеленокумске (Ставропольский край, Россия) (77 км)
Погода в Невинномысске (Ставропольский край, Россия) (82 км)
Погода в Ставрополе (Ставропольский край, Россия) (85 км)
Погода в Буденновске (Ставропольский край, Россия) (90 км)
Погода в Черкесске (Карачаево-Черкессия, Россия) (92 км)
Погода в Кисловодске (Ставропольский край, Россия) (94 км)

Пояснения к столбцам:

Ветер - указаны скорость ветра в м/с - средняя за 10 мин, порывы в срок и между сроками (в фигурных скобках) и направление, откуда дует ветер: С - северный, СВ - северо-восточный, В - восточный, ЮВ - юго-восточный, Ю - южный, ЮЗ - юго-западный, З - западный, СЗ - северо-западный.
Видимость - горизонтальная дальность видимости в метрах или километрах. При видимости от 1 до 10 км при отсутствии осадков обычно наблюдается дымка, при ухудшении видимости до 1 км и менее - туман. В сухую погоду видимость может ухудшаться дымом, пылью или мглою.
Явления - указаны атмосферные явления, наблюдавшиеся в срок или в последний час перед сроком; фигурными скобками обозначены явления, наблюдавшиеся между сроками (за 1-3 часа до срока); квадратными скобками обозначены град или гололедные отложения с указанием их диаметра в мм.
Облачность - указаны через наклонную черту общая и нижняя облачность в баллах и высота нижней границы облаков в метрах; квадратными скобками обозначены формы облаков: Ci - перистые, Cs - перисто-слоистые, Cc - перисто-кучевые, Ac - высококучевые, As - высокослоистые, Sc - слоисто-кучевые, Ns - слоисто-дождевые, Cu - кучевые, Cb - кучево-дождевые. Подробнее классификацию облаков см. в Атласе облаков (PDF).
T - Температура воздуха - температура, измеренная на высоте 2 м над землей.
Td - Температура точки росы - температура, при понижении до которой содержащийся в воздухе водяной пар достигнет насыщения.
f - Относительная влажность воздуха - влажноcть воздуха, измеренная на высоте 2 м над землей.
Te - Эффективная температура - температура, которую ощущает одетый по сезону человек в тени. Характеристика душности погоды. При расчете учитывается влияние влажности воздуха и скорости ветра на теплоощущения человека.
Tes - Эффективная температура на солнце - температура, которую ощущает человек, с поправкой на солнечный нагрев. Характеристика знойности погоды. Зависит от высоты солнца над горизонтом, облачности и скорости ветра. Ночью, в пасмурную погоду, а также при ветре 12 м/с и более поправка равна нулю.
P - Атмосферное давление - приведенное к уровню моря атмосферное давление.
Po - Атмосферное давление - измеренное на уровне метеостанции атмосферное давление.
Tmin - Минимальная температура - минимум температуры воздуха на высоте 2 м над землей.
Tmax - Максимальная температура - максимум температуры воздуха на высоте 2 м над землей.
R - Количество осадков - Количество выпавших осадков за период времени, мм. При наведении курсора мыши на число - период времени, за который выпало указанное количество осадков.
R24 - Количество осадков - Количество выпавших осадков за 24 часа, мм.
S - Снежный покров - Высота снежного покрова, см. При наведении курсора мыши на число - состояние снежного покрова и степень покрытия местности в баллах.